Terug naar catalogus

TOPSAT

ActiefWetenschapSSO
NORAD 28891·PAYLOAD·🇬🇧 United Kingdom

Gelanceerd Oct 27, 2005 vanaf Plesetsk Cosmodrome

Loading…

Volgende Passages (komende 24 uur)

TLE

VersSource: Space-Track

Epoch: Sep 14, 2026, 09:13 UTC

1 28891U 05043B   26257.38423042  .00000279  00000-0  61849-4 0  9998
2 28891  98.3216  36.4075 0015862   9.5322 350.6178 14.64600925113650

Volg TOPSAT in realtime met AllMySat

Download on the App Store